User: anonymous   Login
Location: Unspecified
(0.0000°N, 0.0000°E)
Time: 20:54:39
(UTC+02:00)
Language:

Centaur AC-64 - Orbit

View from above orbital plane
View from above orbital plane
View from above satellite
View from above satellite

Ground track
Ground track

The orbit data is extracted from the following two-line orbital elements,

1 15874U 85055B   16241.82018688  .00002137  00000-0  78123-3 0  9990
2 15874  23.1438 260.4850 6585021 264.6325  22.7756  3.18311579321113
Epoch (UTC): 28 August 2016 19:41:04
Eccentricity: 0.6585021
inclination: 23.1438°
perigee height: 288 km
apogee height: 25997 km
right ascension of ascending node: 260.4850°
argument of perigee: 264.6325°
revolutions per day: 3.18311579
mean anomaly at epoch: 22.7756°
orbit number at epoch: 32111

The dashed part of the orbit path shows where the satellite is in the earth's shadow,  

DLR